Location: Newark
(40.3500°N, 15.2333°E)
Time: 01:39:05
(UTC+00:00)

Vanguard 1 - Pass Details

Date: 30 January 2020
Orbit: 650 x 3833 km, 34.2° (Epoch: 25 February)

Event Time Altitude Azimuth Distance (km) Brightness Sun altitude
Rises 12:16:18 0° 214° (SSW) 4,584 14.6 30.0°
Reaches altitude 10° 12:21:12 10° 194° (SSW) 3,028 14.2 29.8°
Maximum altitude 12:25:06 16° 160° (SSE) 2,228 12.8 29.5°
Drops below altitude 10° 12:28:15 10° 123° (ESE) 2,338 12.2 29.3°
Sets 12:31:16 0° 99° (E) 3,067 12.5 29.1°
